K7LDN-13 Weather Reports


time (UTC)temp
C
wind
direction
speed
KPH
gust
KPH
rain 1hr
cm
rain 24hr
cm
rain mn
cm
humidity
%
barometer
mb
20260508224029 24 66 9.7 32.2 0.00 0.00 0.00 20 1018.1
20260508223527 24 20 17.7 30.6 0.00 0.00 0.00 20 1018.3
20260508223024 24 38 37.0 37.0 0.00 0.00 0.00 20 1018.1
20260508222521 24 6 8.0 22.5 0.00 0.00 0.00 21 1018.1
20260508222018 24 345 20.9 25.7 0.00 0.00 0.00 20 1018.3
20260508221514 24 30 9.7 30.6 0.00 0.00 0.00 21 1018.2
20260508221010 23 5 6.4 35.4 0.00 0.00 0.00 21 1018.5
20260508220507 25 0 19.3 29.0 0.00 0.00 0.00 21 1018.6
20260508220003 24 60 11.3 22.5 0.00 0.00 0.00 21 1018.3
20260508215500 24 0 9.7 20.9 0.00 0.00 0.00 21 1018.6
20260508214956 25 44 9.7 22.5 0.00 0.00 0.00 21 1018.8
20260508214454 23 6 4.8 24.1 0.00 0.00 0.00 22 1018.7
20260508213950 23 19 12.9 24.1 0.00 0.00 0.00 21 1018.7
20260508213448 23 32 27.4 30.6 0.00 0.00 0.00 21 1018.7
20260508212943 24 11 11.3 25.7 0.00 0.00 0.00 22 1018.8
20260508212440 24 5 11.3 20.9 0.00 0.00 0.00 22 1018.9
20260508211936 23 36 16.1 24.1 0.00 0.00 0.00 21 1018.9
20260508211431 23 3 19.3 37.0 0.00 0.00 0.00 21 1019.1
20260508210929 23 338 16.1 29.0 0.00 0.00 0.00 21 1019.0
20260508210426 23 31 12.9 35.4 0.00 0.00 0.00 21 1019.0
20260508205922 23 24 9.7 27.4 0.00 0.00 0.00 21 1019.0
20260508205419 23 27 14.5 24.1 0.00 0.00 0.00 21 1019.3
20260508204915 23 7 22.5 40.2 0.00 0.00 0.00 22 1019.3
20260508204413 23 7 12.9 25.7 0.00 0.00 0.00 22 1019.1
20260508203908 23 13 8.0 29.0 0.00 0.00 0.00 22 1019.0
20260508203404 24 0 20.9 25.7 0.00 0.00 0.00 22 1019.3
20260508202900 23 355 8.0 35.4 0.00 0.00 0.00 22 1019.5
20260508202357 23 2 16.1 29.0 0.00 0.00 0.00 22 1019.3
20260508201855 23 340 6.4 22.5 0.00 0.00 0.00 23 1019.3
20260508201351 23 356 17.7 27.4 0.00 0.00 0.00 23 1019.5
20260508200847 23 2 17.7 33.8 0.00 0.00 0.00 22 1019.6
20260508200345 23 20 6.4 33.8 0.00 0.00 0.00 22 1019.4
20260508195840 23 33 9.7 30.6 0.00 0.00 0.00 23 1019.5
20260508195337 23 17 4.8 29.0 0.00 0.00 0.00 23 1019.6
20260508194833 22 8 8.0 37.0 0.00 0.00 0.00 23 1019.4
20260508194331 23 44 17.7 35.4 0.00 0.00 0.00 22 1019.3
20260508193827 22 3 19.3 41.8 0.00 0.00 0.00 23 1019.6
20260508193324 22 33 12.9 33.8 0.00 0.00 0.00 23 1019.5
20260508192820 23 28 9.7 29.0 0.00 0.00 0.00 22 1019.7
20260508192317 23 3 12.9 38.6 0.00 0.00 0.00 23 1019.5
20260508191814 22 27 9.7 35.4 0.00 0.00 0.00 23 1019.7
20260508191312 22 16 17.7 40.2 0.00 0.00 0.00 23 1019.8
20260508190804 22 8 20.9 33.8 0.00 0.00 0.00 23 1019.6
20260508190259 23 5 24.1 32.2 0.00 0.00 0.00 22 1019.8
20260508185750 22 36 8.0 38.6 0.00 0.00 0.00 23 1019.7
20260508185248 22 36 8.0 38.6 0.00 0.00 0.00 23 1019.7
20260508184745 23 359 16.1 37.0 0.00 0.00 0.00 23 1019.8
20260508184242 22 338 30.6 46.7 0.00 0.00 0.00 23 1019.8
20260508183739 23 343 27.4 27.4 0.00 0.00 0.00 21 1019.6
20260508183235 22 286 3.2 8.0 0.00 0.00 0.00 24 1020.1
20260508182731 22 292 6.4 14.5 0.00 0.00 0.00 25 1019.9
20260508182228 22 206 12.9 16.1 0.00 0.00 0.00 24 1019.9
20260508181724 23 38 3.2 4.8 0.00 0.00 0.00 26 1020.1
20260508181221 22 255 3.2 6.4 0.00 0.00 0.00 25 1020.1
20260508180718 22 35 11.3 16.1 0.00 0.00 0.00 27 1020.1
20260508180215 22 20 9.7 20.9 0.00 0.00 0.00 28 1020.2
20260508175711 22 48 11.3 29.0 0.00 0.00 0.00 27 1020.2
20260508175208 22 17 9.7 20.9 0.00 0.00 0.00 28 1020.4
20260508174706 22 21 6.4 17.7 0.00 0.00 0.00 30 1020.4
20260508174202 21 348 11.3 24.1 0.00 0.00 0.00 30 1020.3
20260508173659 22 68 8.0 24.1 0.00 0.00 0.00 30 1020.4
20260508173154 21 88 11.3 20.9 0.00 0.00 0.00 31 1020.5
20260508172652 22 357 19.3 22.5 0.00 0.00 0.00 31 1020.3
20260508172149 21 30 8.0 9.7 0.00 0.00 0.00 30 1020.5
20260508171645 21 12 12.9 25.7 0.00 0.00 0.00 31 1020.5
20260508171136 21 358 6.4 17.7 0.00 0.00 0.00 31 1020.4
20260508170633 21 45 8.0 22.5 0.00 0.00 0.00 30 1020.3
20260508170131 21 59 6.4 19.3 0.00 0.00 0.00 29 1020.2
20260508165628 21 33 9.7 16.1 0.00 0.00 0.00 28 1020.3
20260508165125 21 13 6.4 17.7 0.00 0.00 0.00 28 1020.3
20260508164620 21 63 6.4 20.9 0.00 0.00 0.00 29 1020.2
20260508164117 21 64 6.4 20.9 0.00 0.00 0.00 29 1020.1
20260508163615 21 59 3.2 11.3 0.00 0.00 0.00 30 1020.1
20260508163111 21 78 8.0 16.1 0.00 0.00 0.00 30 1020.1
20260508162603 21 0 6.4 9.7 0.00 0.00 0.00 31 1020.1
20260508162100 21 37 4.8 14.5 0.00 0.00 0.00 31 1020.1
20260508161557 21 69 3.2 6.4 0.00 0.00 0.00 35 1019.9
20260508161055 21 104 6.4 12.9 0.00 0.00 0.00 33 1019.9
20260508160553 21 292 1.6 6.4 0.00 0.00 0.00 33 1020.2
20260508160049 20 7 3.2 8.0 0.00 0.00 0.00 33 1019.9
20260508155547 20 196 0.0 4.8 0.00 0.00 0.00 35 1020.2
20260508155043 20 175 1.6 4.8 0.00 0.00 0.00 34 1019.8
20260508154540 20 201 3.2 6.4 0.00 0.00 0.00 33 1019.9
20260508154037 20 123 6.4 11.3 0.00 0.00 0.00 36 1020.2
20260508153534 20 77 3.2 4.8 0.00 0.00 0.00 36 1019.9
20260508153030 19 112 6.4 11.3 0.00 0.00 0.00 37 1020.1
20260508152527 18 81 3.2 11.3 0.00 0.00 0.00 39 1020.1
20260508152022 18 126 8.0 12.9 0.00 0.00 0.00 38 1019.8
20260508151520 18 124 8.0 11.3 0.00 0.00 0.00 39 1019.7
20260508151016 18 132 6.4 9.7 0.00 0.00 0.00 41 1019.8
20260508150513 18 100 6.4 12.9 0.00 0.00 0.00 42 1019.7
20260508150009 17 84 6.4 16.1 0.00 0.00 0.00 44 1019.6
20260508145507 18 98 3.2 8.0 0.00 0.00 0.00 45 1019.8
20260508145003 17 158 4.8 12.9 0.00 0.00 0.00 45 1019.7
20260508144500 17 149 8.0 11.3 0.00 0.00 0.00 46 1019.7
20260508143957 17 124 4.8 11.3 0.00 0.00 0.00 47 1019.5
20260508143454 16 121 14.5 14.5 0.00 0.00 0.00 48 1019.7
20260508142950 16 163 4.8 11.3 0.00 0.00 0.00 49 1019.6
20260508142448 16 128 4.8 11.3 0.00 0.00 0.00 49 1019.6
20260508141944 16 126 9.7 14.5 0.00 0.00 0.00 48 1019.4
20260508141441 16 139 6.4 11.3 0.00 0.00 0.00 47 1019.5
20260508140939 15 110 1.6 6.4 0.00 0.00 0.00 47 1019.6
20260508140435 15 141 3.2 6.4 0.00 0.00 0.00 47 1019.4
20260508135931 15 166 3.2 6.4 0.00 0.00 0.00 47 1019.5
20260508135428 15 241 0.0 6.4 0.00 0.00 0.00 46 1019.5
20260508134924 15 140 3.2 4.8 0.00 0.00 0.00 44 1019.6
20260508134421 15 69 0.0 3.2 0.00 0.00 0.00 45 1019.3
20260508133918 16 107 3.2 3.2 0.00 0.00 0.00 44 1019.3
20260508133415 15 89 1.6 4.8 0.00 0.00 0.00 45 1019.3
20260508132912 12 22 0.0 1.6 0.00 0.00 0.00 50 1019.4
20260508132410 11 80 0.0 3.2 0.00 0.00 0.00 53 1019.1
20260508131906 11 320 0.0 3.2 0.00 0.00 0.00 53 1019.1
20260508131402 11 44 0.0 3.2 0.00 0.00 0.00 53 1019.1
20260508130859 10 49 0.0 1.6 0.00 0.00 0.00 54 1019.1
20260508130355 10 326 0.0 1.6 0.00 0.00 0.00 56 1019.0
20260508125852 10 28 0.0 3.2 0.00 0.00 0.00 56 1018.9
20260508125348 10 311 3.2 4.8 0.00 0.00 0.00 56 1018.8
20260508124846 9 339 1.6 1.6 0.00 0.00 0.00 59 1018.8
20260508124343 9 351 1.6 4.8 0.00 0.00 0.00 60 1018.8
20260508123842 9 89 0.0 3.2 0.00 0.00 0.00 59 1018.7
20260508123340 9 34 0.0 3.2 0.00 0.00 0.00 59 1018.8
20260508122835 10 50 1.6 3.2 0.00 0.00 0.00 59 1018.5
20260508122332 10 345 0.0 1.6 0.00 0.00 0.00 55 1018.8
20260508121829 10 278 3.2 4.8 0.00 0.00 0.00 57 1018.6
20260508121328 10 347 0.0 4.8 0.00 0.00 0.00 56 1018.5
20260508120825 10 52 0.0 3.2 0.00 0.00 0.00 56 1018.5
20260508120323 10 148 4.8 4.8 0.00 0.00 0.00 54 1018.6
20260508115820 10 166 1.6 4.8 0.00 0.00 0.00 54 1018.6
20260508115317 10 197 3.2 4.8 0.00 0.00 0.00 57 1018.3
20260508114814 10 112 4.8 6.4 0.00 0.00 0.00 57 1018.6
20260508114311 10 188 3.2 4.8 0.00 0.00 0.00 55 1018.5
20260508113807 10 116 1.6 6.4 0.00 0.00 0.00 56 1018.3
20260508113306 10 189 3.2 4.8 0.00 0.00 0.00 56 1018.2
20260508112802 10 264 3.2 4.8 0.00 0.00 0.00 55 1018.1
20260508112259 10 260 0.0 4.8 0.00 0.00 0.00 57 1018.1
20260508111755 9 124 0.0 3.2 0.00 0.00 0.00 59 1018.3
20260508111253 10 70 1.6 3.2 0.00 0.00 0.00 58 1018.2
20260508110750 10 23 0.0 3.2 0.00 0.00 0.00 57 1018.2
20260508110248 10 87 1.6 3.2 0.00 0.00 0.00 57 1018.2
20260508105742 10 52 0.0 3.2 0.00 0.00 0.00 57 1018.0
20260508105239 10 30 3.2 3.2 0.00 0.00 0.00 56 1018.0
20260508104736 10 348 1.6 3.2 0.00 0.00 0.00 57 1018.2
20260508104233 10 25 3.2 4.8 0.00 0.00 0.00 56 1018.0
20260508103731 10 12 3.2 4.8 0.00 0.00 0.00 56 1018.0
20260508103227 11 261 0.0 4.8 0.00 0.00 0.00 53 1017.8
20260508102724 11 294 4.8 6.4 0.00 0.00 0.00 52 1018.0
20260508102222 10 263 3.2 4.8 0.00 0.00 0.00 54 1018.0
20260508101719 11 18 3.2 3.2 0.00 0.00 0.00 53 1018.1
20260508101217 11 311 0.0 3.2 0.00 0.00 0.00 53 1018.1
20260508100714 11 255 1.6 4.8 0.00 0.00 0.00 52 1017.8
20260508100212 11 322 0.0 3.2 0.00 0.00 0.00 55 1018.0
20260508095708 11 124 1.6 3.2 0.00 0.00 0.00 54 1018.0
20260508095206 11 129 1.6 3.2 0.00 0.00 0.00 54 1017.8
20260508094702 11 202 0.0 6.4 0.00 0.00 0.00 52 1018.0
20260508094159 11 227 3.2 4.8 0.00 0.00 0.00 53 1017.9
20260508093656 11 27 3.2 4.8 0.00 0.00 0.00 56 1017.8
20260508093154 11 76 0.0 4.8 0.00 0.00 0.00 57 1017.8
20260508092651 11 184 1.6 4.8 0.00 0.00 0.00 56 1017.8
20260508092149 11 335 1.6 3.2 0.00 0.00 0.00 57 1017.9
20260508091647 11 161 4.8 6.4 0.00 0.00 0.00 57 1018.0
20260508091143 11 142 3.2 4.8 0.00 0.00 0.00 55 1017.7
20260508090641 11 130 4.8 8.0 0.00 0.00 0.00 54 1017.8
20260508090138 11 164 3.2 4.8 0.00 0.00 0.00 55 1017.7
20260508085634 10 186 1.6 3.2 0.00 0.00 0.00 57 1017.5
20260508085132 11 51 3.2 3.2 0.00 0.00 0.00 57 1017.7
20260508084628 11 76 1.6 4.8 0.00 0.00 0.00 55 1017.8
20260508084125 11 31 4.8 6.4 0.00 0.00 0.00 55 1017.9
20260508083622 11 66 0.0 4.8 0.00 0.00 0.00 51 1017.7
20260508083120 11 86 3.2 6.4 0.00 0.00 0.00 50 1017.8
20260508082615 12 14 1.6 4.8 0.00 0.00 0.00 49 1017.7
20260508082113 12 79 3.2 9.7 0.00 0.00 0.00 46 1017.7
20260508081610 13 236 3.2 9.7 0.00 0.00 0.00 45 1017.4
20260508081106 13 314 0.0 6.4 0.00 0.00 0.00 46 1017.5
20260508080604 13 212 1.6 4.8 0.00 0.00 0.00 46 1017.7
20260508075558 13 275 3.2 6.4 0.00 0.00 0.00 46 1017.5
20260508075055 13 348 1.6 6.4 0.00 0.00 0.00 45 1017.5
20260508074553 12 295 3.2 6.4 0.00 0.00 0.00 46 1017.7
20260508074049 12 272 3.2 8.0 0.00 0.00 0.00 48 1017.8
20260508073547 13 263 0.0 8.0 0.00 0.00 0.00 47 1017.8
20260508073044 13 255 4.8 8.0 0.00 0.00 0.00 47 1017.8
20260508072540 12 253 4.8 4.8 0.00 0.00 0.00 48 1017.8
20260508072037 12 25 0.0 3.2 0.00 0.00 0.00 49 1017.7
20260508071535 13 96 3.2 3.2 0.00 0.00 0.00 48 1017.7
20260508071033 13 224 0.0 3.2 0.00 0.00 0.00 46 1017.7
20260508070530 13 195 0.0 4.8 0.00 0.00 0.00 46 1017.8
20260508070028 13 314 3.2 4.8 0.00 0.00 0.00 46 1018.1
20260508065526 13 291 1.6 8.0 0.00 0.00 0.00 45 1018.0
20260508065024 13 217 4.8 8.0 0.00 0.00 0.00 44 1017.7
20260508064521 13 171 4.8 8.0 0.00 0.00 0.00 44 1017.8
20260508064019 14 197 3.2 4.8 0.00 0.00 0.00 41 1017.7
20260508063516 15 215 0.0 4.8 0.00 0.00 0.00 40 1017.5
20260508063013 15 326 4.8 6.4 0.00 0.00 0.00 40 1017.7
20260508062511 15 285 4.8 9.7 0.00 0.00 0.00 40 1017.4
20260508062007 13 2 6.4 11.3 0.00 0.00 0.00 46 1017.7
20260508061506 13 22 4.8 9.7 0.00 0.00 0.00 45 1017.5
20260508061002 14 4 4.8 6.4 0.00 0.00 0.00 43 1017.5
20260508060459 13 250 1.6 3.2 0.00 0.00 0.00 45 1017.4
20260508055955 15 359 6.4 8.0 0.00 0.00 0.00 44 1017.2
20260508055452 14 175 0.0 8.0 0.00 0.00 0.00 42 1017.4
20260508054948 14 119 1.6 4.8 0.00 0.00 0.00 42 1017.5
20260508054446 14 104 3.2 3.2 0.00 0.00 0.00 43 1017.1
20260508053942 15 32 0.0 3.2 0.00 0.00 0.00 42 1017.1
20260508053439 14 319 4.8 6.4 0.00 0.00 0.00 42 1017.3
20260508052937 15 355 4.8 4.8 0.00 0.00 0.00 43 1017.2
20260508052434 15 304 3.2 6.4 0.00 0.00 0.00 41 1017.2
20260508051930 15 290 1.6 6.4 0.00 0.00 0.00 41 1017.1
20260508051426 15 105 0.0 3.2 0.00 0.00 0.00 41 1017.0
20260508050922 15 109 6.4 8.0 0.00 0.00 0.00 39 1017.1
20260508050419 16 238 4.8 8.0 0.00 0.00 0.00 38 1017.1
20260508045915 15 284 4.8 6.4 0.00 0.00 0.00 39 1017.2
20260508045408 15 315 4.8 8.0 0.00 0.00 0.00 39 1016.9
20260508044905 16 4 0.0 6.4 0.00 0.00 0.00 39 1017.0
20260508044402 16 298 4.8 8.0 0.00 0.00 0.00 38 1016.9
20260508043857 16 350 3.2 11.3 0.00 0.00 0.00 38 1017.2
20260508043355 16 283 8.0 9.7 0.00 0.00 0.00 38 1017.2
20260508042851 16 303 4.8 6.4 0.00 0.00 0.00 38 1017.1
20260508042349 16 255 1.6 4.8 0.00 0.00 0.00 38 1017.2
20260508041845 16 316 4.8 9.7 0.00 0.00 0.00 37 1017.0
20260508041342 16 297 3.2 6.4 0.00 0.00 0.00 37 1017.2
20260508040838 16 306 4.8 8.0 0.00 0.00 0.00 37 1017.3
20260508040335 17 266 1.6 8.0 0.00 0.00 0.00 37 1017.1
20260508035832 17 284 3.2 6.4 0.00 0.00 0.00 36 1017.1
20260508035324 17 24 0.0 8.0 0.00 0.00 0.00 36 1017.0
20260508034821 17 298 4.8 8.0 0.00 0.00 0.00 36 1017.0
20260508034318 17 280 3.2 11.3 0.00 0.00 0.00 36 1016.9
20260508033815 17 262 4.8 14.5 0.00 0.00 0.00 35 1017.0
20260508033314 17 286 6.4 14.5 0.00 0.00 0.00 36 1017.0
20260508032811 18 288 6.4 12.9 0.00 0.00 0.00 35 1016.9
20260508032308 18 277 6.4 8.0 0.00 0.00 0.00 34 1017.0
20260508031804 18 283 6.4 9.7 0.00 0.00 0.00 34 1016.6
20260508031301 18 262 6.4 11.3 0.00 0.00 0.00 34 1016.6
20260508030757 18 327 3.2 4.8 0.00 0.00 0.00 34 1016.5
20260508030255 18 256 0.0 4.8 0.00 0.00 0.00 33 1016.7
20260508025751 18 326 0.0 3.2 0.00 0.00 0.00 33 1016.7
20260508025249 19 317 1.6 3.2 0.00 0.00 0.00 32 1016.6
20260508024744 19 258 3.2 4.8 0.00 0.00 0.00 30 1016.5
20260508024241 19 299 0.0 0.0 0.00 0.00 0.00 33 1016.4
20260508023738 19 309 0.0 0.0 0.00 0.00 0.00 33 1016.5
20260508023235 20 309 0.0 1.6 0.00 0.00 0.00 31 1016.4
20260508022731 20 293 0.0 0.0 0.00 0.00 0.00 29 1016.5
20260508022228 21 235 0.0 4.8 0.00 0.00 0.00 28 1016.4
20260508021724 21 129 0.0 1.6 0.00 0.00 0.00 26 1016.4
20260508021220 22 37 0.0 1.6 0.00 0.00 0.00 27 1016.3
20260508020717 22 21 1.6 3.2 0.00 0.00 0.00 26 1016.3
20260508020214 22 60 0.0 6.4 0.00 0.00 0.00 24 1016.1
20260508015712 22 91 3.2 4.8 0.00 0.00 0.00 24 1016.2
20260508015209 23 79 3.2 6.4 0.00 0.00 0.00 24 1016.4
20260508014705 23 83 1.6 3.2 0.00 0.00 0.00 24 1016.3
20260508014201 23 72 3.2 8.0 0.00 0.00 0.00 23 1016.1
20260508013658 23 96 4.8 9.7 0.00 0.00 0.00 23 1016.2
20260508013155 23 95 6.4 9.7 0.00 0.00 0.00 23 1016.3
20260508012652 23 84 4.8 9.7 0.00 0.00 0.00 23 1016.3
20260508012149 23 65 4.8 9.7 0.00 0.00 0.00 23 1016.1
20260508011648 23 154 0.0 4.8 0.00 0.00 0.00 23 1016.2
20260508011145 23 137 3.2 6.4 0.00 0.00 0.00 23 1016.4
20260508010641 23 87 6.4 11.3 0.00 0.00 0.00 24 1016.3
20260508010140 23 125 6.4 9.7 0.00 0.00 0.00 23 1016.4
20260508005636 23 114 3.2 9.7 0.00 0.00 0.00 24 1016.4
20260508005133 22 123 3.2 6.4 0.00 0.00 0.00 24 1016.3
20260508004628 22 84 3.2 4.8 0.00 0.00 0.00 24 1016.5
20260508004125 22 89 0.0 3.2 0.00 0.00 0.00 23 1016.6
20260508003622 22 92 1.6 11.3 0.00 0.00 0.00 24 1016.4
20260508003120 22 87 6.4 9.7 0.00 0.00 0.00 23 1016.5
20260508002616 22 89 3.2 6.4 0.00 0.00 0.00 23 1016.6
20260508002114 23 85 3.2 11.3 0.00 0.00 0.00 24 1016.6
20260508001609 23 87 4.8 8.0 0.00 0.00 0.00 23 1016.5
20260508001105 23 59 4.8 9.7 0.00 0.00 0.00 24 1016.6
20260508000601 23 355 3.2 3.2 0.00 0.00 0.00 24 1016.7
20260508000058 23 104 3.2 4.8 0.00 0.00 0.00 25 1017.0
20260507235555 23 68 4.8 8.0 0.00 0.00 0.00 23 1016.7
20260507235053 23 57 1.6 4.8 0.00 0.00 0.00 22 1016.7
20260507234549 23 103 3.2 17.7 0.00 0.00 0.00 23 1017.0
20260507234045 23 60 4.8 16.1 0.00 0.00 0.00 23 1016.9
20260507233541 23 30 12.9 20.9 0.00 0.00 0.00 23 1017.0
20260507233041 24 92 4.8 12.9 0.00 0.00 0.00 21 1016.9
20260507232537 24 358 6.4 14.5 0.00 0.00 0.00 23 1017.2
20260507232034 23 33 3.2 8.0 0.00 0.00 0.00 24 1017.2
20260507231530 23 15 4.8 17.7 0.00 0.00 0.00 24 1017.2
20260507231028 23 1 8.0 17.7 0.00 0.00 0.00 24 1017.3
20260507230524 23 23 8.0 20.9 0.00 0.00 0.00 24 1017.3
20260507230021 23 63 9.7 16.1 0.00 0.00 0.00 24 1017.7
20260507225516 23 61 4.8 14.5 0.00 0.00 0.00 23 1017.4
20260507225012 23 269 0.0 4.8 0.00 0.00 0.00 22 1017.4
20260507224508 23 346 14.5 19.3 0.00 0.00 0.00 23 1017.7